Theta_e
327 324 321 318 316 317 316 312 311 311 310 310 309 308 308 308 308 308 307 307 306 305 305 304 303 303 302 302 302 302 301 302 303 299 299 298 298 298 297 296 295 295 291
326 323 320 317 316 316 315 312 311 310 310 309 308 307 307 307 307 307 305 305 305 304 303 303 302 302 303 302 302 301 301 301 302 300 299 299 298 297 296 297 295 294 293
325 322 319 317 316 316 314 312 310 309 308 308 307 307 306 306 306 306 305 304 303 303 302 302 302 302 302 302 302 301 299 299 299 300 299 298 297 296 297 297 296 295 293
324 323 320 317 317 316 314 312 310 309 307 307 306 306 305 306 305 304 304 303 302 302 302 301 301 302 302 302 301 301 300 299 299 299 299 299 298 296 297 297 298 296 295
325 323 320 319 318 317 314 311 309 308 307 306 306 305 305 305 304 304 303 302 301 301 301 300 300 300 300 300 301 300 300 299 299 299 299 299 298 298 297 296 296 296 295
326 324 322 320 318 315 312 311 309 308 307 306 306 305 305 303 302 302 303 302 301 301 300 299 297 295 295 295 298 298 298 299 298 299 298 299 298 297 296 296 294 295 295
326 324 323 319 317 315 312 311 310 308 307 306 305 305 305 303 301 301 302 302 302 302 301 299 295 296 291 290 290 291 291 295 297 298 298 298 298 297 295 295 294 293 294
325 324 321 320 317 315 313 311 310 308 307 306 306 305 305 304 300 299 300 302 302 302 302 301 298 297 298 296 293 296 294 292 293 294 296 296 296 295 295 294 293 293 293
325 324 322 320 318 315 313 312 310 308 307 306 306 305 305 303 300 297 298 302 302 302 302 301 299 298 298 296 297 297 297 294 290 290 293 292 291 292 293 293 291 291 293
325 325 323 321 318 316 314 312 310 309 307 306 305 305 305 304 301 296 296 301 302 302 301 301 299 300 298 292 297 297 297 297 293 291 290 291 291 290 289 291 292 291 291
325 325 323 321 319 317 315 312 311 309 308 306 305 305 305 305 302 296 296 300 302 302 301 301 300 298 298 293 295 297 297 296 294 294 294 294 294 295 293 291 291 291 290
324 324 323 321 319 317 315 313 311 310 308 307 305 305 305 303 303 297 296 299 301 301 301 301 300 297 295 293 292 294 294 294 294 294 295 295 295 294 293 292 291 291 290
321 321 320 319 318 316 315 313 312 310 309 308 306 306 305 304 303 301 296 296 300 300 301 300 300 299 295 293 292 292 291 291 295 295 295 295 294 294 293 292 291 291 291
320 319 318 317 317 316 315 313 312 311 310 309 308 307 307 305 304 301 297 295 298 298 299 299 298 298 296 293 293 292 291 292 295 296 296 296 295 294 293 293 291 291 291
320 319 317 317 315 315 315 314 313 311 310 310 309 309 308 307 305 302 299 296 295 297 298 298 297 296 294 294 295 293 292 293 294 295 296 296 295 294 294 294 292 291 292
321 320 319 318 316 316 316 315 313 313 310 310 310 309 309 308 305 303 301 297 296 296 297 299 298 297 296 296 296 295 294 293 295 295 295 295 295 294 293 293 293 291 291
319 320 319 318 317 316 317 317 314 311 311 310 309 309 309 307 306 304 302 299 297 297 297 299 300 299 298 298 297 297 296 296 295 295 295 295 295 295 293 293 292 292 291
315 317 318 316 316 315 316 316 315 313 310 308 308 308 307 307 306 305 303 300 298 297 298 299 300 301 300 299 298 298 297 297 296 295 295 295 295 294 294 293 292 292 291
311 314 315 315 315 314 315 315 314 314 312 310 308 305 306 305 305 304 303 300 299 298 298 299 300 301 301 300 300 298 298 297 296 296 295 295 295 295 294 293 292 292 292
307 309 311 312 312 312 313 313 314 314 314 312 310 305 302 303 302 301 300 300 300 300 299 299 300 301 302 302 301 300 298 297 297 296 295 295 295 294 294 293 293 292 291
299 304 306 307 309 311 312 312 313 313 313 313 312 309 304 302 302 300 299 299 300 301 301 300 299 301 301 302 302 301 299 298 297 296 295 295 294 294 293 293 293 292 292
293 296 300 304 306 306 308 310 311 312 313 312 312 311 308 303 303 303 302 300 300 301 302 302 302 301 301 302 302 302 300 299 298 297 297 295 295 293 292 293 293 293 292
291 292 294 296 298 302 303 304 305 307 309 309 310 309 306 303 305 305 305 303 302 302 302 303 302 302 302 301 302 302 301 300 299 298 297 296 295 295 293 292 293 293 292
290 291 291 291 291 294 296 299 303 304 305 306 306 306 306 304 303 305 306 304 304 303 302 302 303 302 302 302 302 301 301 300 299 298 297 297 296 295 294 293 293 293 292
290 289 289 290 290 290 290 291 294 296 298 300 302 304 304 302 301 302 303 304 304 303 302 301 301 302 302 301 301 300 300 300 299 298 298 297 296 296 295 294 293 293 292
289 290 289 289 289 289 289 289 289 290 291 292 294 296 297 299 299 299 299 299 300 301 301 300 300 299 300 300 300 299 299 299 298 297 297 296 296 295 295 294 293 293 293
Wind_Speed
29 27 24 23 22 20 19 18 17 17 17 17 17 16 15 15 14 13 13 15 13 12 11 11 10 8 7 7 7 6 5 3 8 5 5 4 3 2 2 2 2 4 6
30 28 26 24 22 21 20 19 19 18 18 18 18 17 16 16 15 15 14 14 14 13 12 12 11 9 7 7 7 8 6 4 4 7 4 3 3 2 1 1 2 2 2
30 28 26 26 24 22 22 21 20 20 19 19 19 18 18 17 16 15 14 14 14 13 12 12 11 10 7 7 7 6 6 5 4 4 5 3 2 1 1 2 1 1 1
30 29 28 28 26 24 23 22 22 21 20 20 19 18 18 18 17 16 15 15 14 13 12 11 11 9 8 7 6 6 5 5 4 4 4 3 0 0 1 1 2 1 0
31 31 29 27 26 24 24 24 23 22 21 20 20 19 18 18 18 18 17 16 15 14 12 11 11 13 13 11 7 6 5 4 4 3 3 2 1 2 1 1 1 3 2
32 30 30 28 27 26 25 25 24 22 22 21 21 20 20 19 21 21 18 17 15 15 14 12 12 13 13 12 11 11 9 5 3 2 2 2 2 2 1 0 1 2 1
30 29 29 29 28 27 25 25 24 24 23 23 22 21 21 18 22 25 21 16 16 15 14 13 11 10 10 10 10 8 8 9 7 3 2 1 3 2 3 2 1 0 3
30 28 29 30 29 29 28 27 26 25 25 24 23 22 21 19 22 28 25 16 15 15 14 14 12 12 12 10 9 7 6 6 5 2 2 3 3 3 2 3 2 3 2
31 32 32 31 31 30 30 29 28 26 26 25 24 24 23 21 21 29 27 17 16 16 15 14 14 13 15 16 11 9 8 6 7 7 6 8 9 10 8 4 2 1 3
33 32 31 32 31 32 31 30 28 26 26 25 24 25 25 21 24 30 29 19 18 17 16 15 18 15 16 16 11 10 10 9 7 5 4 1 1 5 5 5 4 4 3
28 28 30 31 31 30 29 29 29 27 25 26 25 24 24 24 26 32 33 21 19 19 18 17 16 22 18 16 14 10 10 11 11 7 6 5 5 7 5 6 7 6 7
23 24 26 28 28 30 30 28 28 27 26 26 25 24 24 25 24 33 35 26 20 19 18 17 17 19 22 17 16 13 13 12 8 8 8 8 8 9 9 8 8 9 9
13 17 22 24 26 28 29 29 29 28 26 26 26 25 24 25 23 26 36 34 21 19 17 17 18 17 18 19 19 17 13 13 10 11 10 10 10 9 9 9 9 9 9
19 17 16 19 21 23 26 28 28 29 27 27 26 24 23 24 25 28 35 36 29 26 13 15 19 18 18 21 20 20 16 14 14 13 12 10 9 10 10 11 12 11 11
19 19 20 22 25 23 25 26 26 27 29 27 26 26 27 27 30 29 34 39 37 28 20 15 17 17 17 18 17 18 18 17 18 16 14 13 13 12 12 11 12 12 15
17 17 19 22 23 24 25 23 27 25 30 28 25 26 25 25 26 31 31 36 37 35 27 23 20 22 22 22 22 21 21 22 21 19 19 17 16 15 14 13 13 14 14
7 14 20 21 21 24 24 23 20 21 24 31 28 27 24 28 27 30 33 32 35 35 30 27 25 25 24 24 24 24 24 25 22 21 21 20 19 17 17 15 15 15 15
11 11 12 19 16 19 19 21 19 21 18 21 31 27 29 24 28 28 31 31 30 36 31 30 27 26 25 25 25 25 24 23 24 24 23 22 21 20 18 18 18 18 17
16 7 10 9 13 19 19 20 19 19 21 20 20 28 30 28 25 26 29 36 31 33 34 29 28 27 26 25 24 25 25 26 26 26 25 25 25 22 21 21 19 19 18
16 14 6 3 8 11 14 14 17 17 18 18 21 22 25 31 31 33 35 34 31 30 32 33 30 28 27 26 25 26 26 26 27 30 27 27 28 29 25 23 22 20 21
17 14 9 9 8 8 12 15 15 17 18 19 21 23 30 34 31 31 34 34 34 31 31 32 33 31 30 28 27 28 29 29 29 29 29 30 34 32 29 25 24 23 21
23 16 14 9 7 10 11 12 15 16 17 18 20 24 29 32 26 28 29 31 33 34 30 30 30 31 32 32 31 30 30 33 34 31 31 31 30 34 30 27 26 25 24
28 26 21 17 15 10 11 15 12 8 10 11 12 13 27 28 24 25 28 29 29 30 30 29 30 30 30 31 32 33 34 34 37 37 36 33 31 29 32 30 29 28 26
22 24 24 23 22 16 13 12 9 10 12 11 13 14 19 26 23 23 24 28 28 30 29 30 29 29 29 29 30 33 34 33 32 35 34 36 34 32 31 30 30 30 29
18 19 20 21 22 22 21 17 12 8 6 7 9 12 9 13 17 22 28 26 29 29 29 31 30 31 30 30 31 33 33 34 34 34 31 34 35 33 32 32 30 30 30
15 15 17 18 19 19 20 20 19 18 15 11 4 5 8 10 6 6 11 18 24 25 26 27 28 30 27 26 29 31 33 33 31 32 34 27 29 30 31 32 32 31 30
Wind_Direction
179 176 174 173 171 170 166 166 168 165 164 160 154 154 156 152 152 151 148 144 143 142 138 134 129 126 121 113 103 88 70 33 114 120 122 120 77 72 39 43 47 166 62
179 176 176 172 173 171 170 169 168 168 166 164 158 160 161 159 157 156 150 149 147 147 142 137 132 129 124 116 109 98 87 63 111 141 140 134 96 67 76 79 97 105 55
179 178 175 175 176 177 174 172 170 171 168 167 164 167 166 163 159 157 155 152 151 152 148 146 141 138 136 130 121 113 105 97 101 156 141 145 136 37 215 163 100 191 3
181 180 180 180 180 179 178 175 174 173 172 170 169 170 171 166 163 162 160 157 154 154 153 150 145 143 144 139 132 131 127 122 126 141 135 148 133 315 241 307 202 218 292
183 184 183 183 180 179 180 178 176 174 176 174 171 173 174 173 171 168 166 163 160 157 154 150 149 163 157 162 155 151 147 153 164 171 160 177 176 204 238 350 292 286 160
184 187 182 184 181 180 180 179 176 177 178 177 178 178 178 181 182 171 169 169 169 167 160 159 177 171 175 176 173 165 165 168 171 200 172 213 185 201 212 240 316 329 254
182 188 186 183 181 179 180 181 181 179 177 179 182 183 185 185 191 178 170 173 174 175 170 169 157 170 165 176 180 178 179 174 157 118 163 169 198 209 192 198 228 241 279
183 187 184 184 183 180 181 184 183 181 179 182 185 187 188 190 192 186 173 176 179 181 181 178 175 175 169 166 155 152 148 141 152 137 120 160 174 183 191 194 228 275 252
186 191 187 184 185 183 184 183 184 180 180 185 188 189 190 194 198 187 179 181 185 188 187 188 186 180 193 174 176 177 175 179 217 209 200 213 219 203 175 172 215 223 253
190 192 188 188 189 189 186 185 183 184 184 189 191 194 194 191 199 191 185 185 189 192 192 195 192 192 205 190 179 191 195 193 193 194 208 223 112 160 205 188 218 210 232
195 193 190 192 193 188 185 184 182 184 186 191 193 195 197 195 199 194 191 190 195 195 196 199 203 200 206 199 182 203 215 199 206 202 207 213 216 219 222 226 221 232 233
191 194 190 192 192 186 183 183 185 185 186 189 191 193 199 199 207 198 198 188 199 200 201 204 206 211 208 204 199 206 212 201 202 205 213 218 220 223 226 229 227 232 243
183 189 186 191 192 189 184 181 184 188 188 190 193 194 193 196 199 210 201 194 195 202 205 207 206 214 213 208 210 222 221 208 209 217 222 225 224 227 226 228 232 236 246
181 184 187 191 191 193 191 187 188 187 191 191 195 193 192 194 195 201 205 201 200 200 204 197 202 207 213 210 214 221 219 212 214 224 228 227 221 218 222 229 233 238 241
178 186 185 195 195 201 201 196 194 196 194 193 195 194 191 194 200 198 199 200 202 200 195 193 194 195 199 202 209 215 219 214 221 224 227 224 220 222 227 225 228 233 241
182 194 197 200 194 203 203 201 202 205 204 202 203 200 203 206 203 205 209 202 202 198 196 201 201 202 203 204 207 207 212 216 218 219 224 225 222 223 228 227 226 229 243
271 211 200 196 199 202 206 205 191 205 202 208 210 207 205 204 206 209 213 207 205 197 199 208 209 207 208 209 209 210 212 216 219 220 222 223 222 224 226 226 228 232 238
316 268 203 194 196 199 208 212 196 197 197 204 211 211 208 209 207 210 212 204 200 204 207 211 215 212 211 212 213 214 216 216 215 219 221 223 222 220 221 223 229 231 232
352 287 231 203 196 205 220 212 204 203 203 205 198 210 212 211 209 210 209 199 199 205 213 218 219 218 217 217 217 217 218 216 215 217 220 222 221 217 221 224 229 233 232
13 354 321 275 218 216 217 226 210 212 204 200 200 199 194 200 196 200 206 204 208 212 213 218 220 221 220 219 218 215 218 220 219 220 221 222 222 224 222 223 224 227 228
5 4 349 319 324 248 232 230 220 217 214 203 208 201 196 197 200 202 204 205 209 215 217 219 221 222 222 222 221 216 216 219 221 221 222 224 227 223 224 227 227 227 230
16 16 13 337 320 330 313 274 250 235 235 224 215 198 202 201 203 205 209 212 214 217 220 220 221 220 221 221 221 220 221 223 224 222 222 222 223 234 226 225 225 225 225
25 23 22 10 10 357 308 296 306 298 267 254 241 216 202 205 206 211 207 211 218 219 222 223 222 223 223 224 226 226 225 226 236 237 229 223 222 223 231 223 223 223 223
25 30 28 31 27 16 1 358 316 279 266 253 241 233 221 220 221 220 226 220 215 225 221 222 223 227 226 227 229 230 233 237 237 242 239 233 227 225 225 226 224 224 225
7 21 27 31 37 36 34 32 14 340 325 283 252 234 222 236 238 239 235 233 228 229 233 232 231 232 234 238 239 243 244 244 245 244 240 237 236 231 226 225 226 224 225
359 6 14 20 23 31 35 36 37 35 35 25 344 270 252 243 258 275 272 259 254 247 246 246 247 245 244 244 249 249 251 254 251 248 245 238 234 235 231 229 228 225 226